[Date Prev][Date Next][Thread Prev][Thread Next][Date Index][Thread Index]
[jamsat-news:1515] jas2info #230
========================   ºÇ¿·¾ðÊó   ==============================
        Last updated ¡§Sat.16JUN2001 ¡¡11:30(JST)   #230
        
====================================================================
   
  £±¡Ë¥¢¥Þ¥Á¥å¥¢ÄÌ¿®±ÒÀ±¾ðÊ󡢣ƣϥ·¥ê¡¼¥º¤Îµ°Æ»Í×ÁÇ¡¢¥Æ¥ì¥á¥È¥ê¡¢£Ñ£Ó£Ï¤Î
¡¡¡¡¡¡¾õ¶·Åù¤ò¤Þ¤È¤á¤Æ¤ß¤Þ¤·¤¿¡¥
¡¡¡¡¡¡
¡¡¡¡¡¡£Æ£Ï¡Ý£²£¹¤Î£²£°£°£±Ç¯£¶·î£±£¶Æü¡ÊÅڡˤΣ¹¡§£²£¶¡Ê£Ê£Ó£Ô¡Ë¤Î¥Ñ¥¹¤Ç¤Ï
¡¡¡¡£Ê£Á£Ò£Ì¤Î¥Û¡¼¥à¥Ú¡¼¥¸¤Î¤È¤¦¤ê¥¢¥Ê¥í¥°±¿ÍѤǤ·¤¿¡£¡¡º£½µ¤Î´Ñ¬¤·¤¿
¡¡¡¡¥Æ¥ì¥á¥È¥ê¡¼¤ÈºÇ½ª¤ÎʬÀÏ·ë²Ì¤ò·ÇºÜ¤·¤Æ¤ª¤¤Þ¤¹.
AS23850C1      16JUN2001
9:26-9:40(JST) 
FREQ.435.803-.787MHz
HI HI AE C7 88 55 00 D4 F0 1D 09 44 7A 4F 68 62 96 95 B0 77 A9 A8 A8 A7 A5 
HI HI AE C7 88 55 00 D4 F0 1D 09 44 85 52 61 62 96 94 B0 80 A9 A8 A8 A6 A4 
HI HI AE C7 88 55 00 D4 F0 1D 09 44 91 53 5E 62 96 95 B0 67 A9 A8 A8 A6 A4 
HI HI AE C7 88 55 00 D4 F0 1D 09 44 99 51 5E 62 96 94 B0 6F A8 A8 A8 A6 A4 
HI HI AE C7 88 55 00 D4 F0 1D 09 44 9B 4F 61 62 96 95 B0 8E A8 A7 A8 T6 A4 
HI HI AE C7 88 55 00 D4 F0 1D 09 44 97 4C 68 62 96 94 B0 7C A8 A7 A8 A6 A4 
HI HI AE C7 88 55 00 D4 F0 1D 09 44 8D 4C 69 62 97 95 B0 7C A8 A7 A8 A6 A4 
HI HI AE C7 88 55 00 D4 F0 1D 09 44 7C 4E 74 62 97 95 AF 87 A8 A7 A7 A6 A5 
HI HI AE C7 88 55 00 D4 F0 1D 09 44 69 53 7C 62 96 95 B0 83 A8 A7 A7 A6 A5 
HI HI AE C7 88 55 00 D4 F0 1D 09 44 55 5D 82 62 97 95 B0 9F A8 A7 A7 A6 A5 
HI HI AE C7 88 55 00 D4 F0 1D 09 44 43 6B 87 62 97 95 B0 69 A8 A7 A7 A6 A5 
HI HI AE C7 88 55 00 D4 F0 1D 09 44 36 7B 7F 62 97 95 B0 6C A8 A7 A7 A6 A5 
HI HI AE C7 88 55 00 D4 F0 1D 09 44 2F 8D 7F 62 97 95 B0 62 A8 A7 A7 A6 A4 
HI HI AE C7 88 55 00 D4 F0 1D 09 44 30 9E 85 62 96 95 B0 6B A8 A6 A7 A6 A5 
HI HI AE C7 88 55 00 D4 F0 1D 09 44 38 AD 80 62 97 95 B0 67 A8 A6 A7 A6 A5 
HI HI AE C7 88 55 00 D4 F0 1D 09 44 45 B9 7A 62 97 95 B0 6A A8 A6 A7 A6 A5 
HI HI AE C7 88 55 00 D4 F0 1D 09 44 55 C0 71 62 97 95 B0 4D A7 A6 A6 A5 A5 
HI HI AE C7 88 55 00 D4 F0 1D 09 44 65 C5 69 62 97 95 B0 44 A7 A6 A6 A5 A5
AS23842C1   15JUN2001
19:47-20:05(JST)
FREQ.435.802-.788MHz
HI HI AE C7 88 55 00 D4 49 B7 09 4E 8A A9 6C 62 97 95 B0 70 A4 A2 A5 A5 A5 
HI HI AE C7 88 55 00 D4 49 B7 09 4E 94 9F 6F 62 97 95 B0 69 A4 A2 A5 A5 A5 
HI HI AE C7 88 55 00 D4 49 B7 09 4E 98 90 6C 62 97 95 B0 9D A4 A2 A5 A5 A5 
HI HI AE C7 88 55 00 D4 49 B7 09 4E 94 80 64 62 98 95 BO 8F A4 A2 A5 A5 A4 
HI HI AE C7 88 55 00 D4 49 B7 09 4E 8A 6E 5D 62 98 95 B0 65 A4 A1 A5 A5 A5 
HI HI AE C7 88 55 00 D4 49 B7 09 4E 7B 5F 60 62 97 95 B0 7D A4 A1 A5 A5 A4 
HI HI AE C7 88 55 00 D4 49 B7 09 4E 6A 53 58 62 97 95 B0 6C A4 A1 A5 A4 A4 
HI HI AE C7 88 55 00 D4 49 B7 09 4E 59 4B 53 62 97 95 B0 86 A4 A1 A5 A4 A4 
HI HI AE C7 88 55 00 D4 49 B7 09 4E 4C 47 4D 62 97 95 AD 52 A4 A1 A4 A4 A4 
HI HI AE C7 88 55 00 D4 49 B7 09 4E 44 48 4A 64 96 94 AA 6F A4 A1 A5 A4 A4 
HI HI AE C7 88 55 00 D4 49 B7 09 4E 45 4C 4A 63 95 93 AB 61 A4 A1 A5 A4 A4 
HI HI AE C7 88 55 09 D4 49 B7 09 4E 46 53 4C 63 95 93 AD 7D A4 A1 A5 A4 A4 
HI HI AE C7 88 55 00 D4 49 B7 09 4E 50 5A 51 62 96 94 B0 7A A3 A1 A5 A4 A4 
HI HI AE C7 8G 55 00 D4 49 B7 0B 4E 5D 60 57 62 97 75 B0 7A A3 A1 A5 A4 A4 
HI HI AE C7 88 55 00 D4 49 B7 09 4E 6B 62 5C 62 97 95 B0 7E A3 A1 A4 A4 A4 
HI HI AE C7 88 55 09 D4 49 B7 09 4E 78 63 60 62 97 95 B0 92 A3 A1 A5 A4 A4 
HI HI AE C7 88 55 00 D4 49 B7 09 4E 82 5F 5F 62 98 96 B0 75 A3 A1 A4 A4 A4 
HI HI AE C7 88 55 00 D4 49 B7 09 4E 86 59 63 62 98 96 B0 79 A3 A1 A4 A4 A4 
HI HI AE C7 88 55 00 D4 49 B7 09 4E 86 51 6D 62 98 96 B0 7D A4 A1 A4 A4 A4 
HI HI AE C7 88 55 00 D4 49 B7 09 4E       6E 63 98 96 B0 7C A3 A1 A4 A4 A4 
HI HI AE C7 88 55 00 D4 49 B7 09 4E 7C 46 69 63 98 96 B0 AC A3 A1 A4 A4 A4 
HI HI AE C7 88 55 00 D4 49 B7 09 4E 76 44 5E 63 98 96 B0 77 A3 A1 A4 A3 A4 
HI HI AE C7 88 55 00 D4 49 B7 09 4E 72 45 58 62 97 76 B0 60 A3 A1 A4 A3 A4 
HI HI AE C7 88 55 00 D4 49 B7 09 4E 71 49 59 62 98 65 H  6F A3 A1 A4 A3 A4 
AS23828C1   14JUN2001
19:01-19-10(JST)
FREQ.435.799-.790MHz
HI HI AE C7 88 55 00 D4 BE DB 09 5E          62 98 95 B0 87 A4 A1 A3 A4 A4
HI HI AE C7 88 55 00 D4 BE DB 09 5E 80 A1 6D 62 98 95 B0 8D A4 A1 A3 A4 A4 
HI HI AE C7 88 55 00 D4 BE DB 09 HF 87       62 98 95 B0 76 A4 A1 A3 A4 A4 
HI HI AE C7 88 55 00 D4 BE DB 09 5F 8A  6 71 62 98 95 B0 6D A4 A1 A2 A3 A4 
HI HI AE C7 88 55 00 D4 BE DB 09 5F 87 8E 6C 62 98 96 B0 6E A4 A1 A2 A3 A4 
HI HI AE C7 88 55 00 D4 BE DB 09 5F 7F 84 69 62 98 96 D0 80 A4 A1 A2 A3 A4 
HI HI AE C7 88 5H 00 D4 Be DB 09 5F 72 7E 6D 62 98 96 B0 81 A4 A1 A2 A3 A4 
HI HI AE C7 88 55 00 D4 BE DB 09 5F 66 6E 6B 62 98 96 B0 7A A4 A1 A2 A3 A4 
HI HI AE C7 88 55 00 D4 BE DB 09 5F 5A 64 66 62 98 85 B0 7D A4 A1 A2 A3 A4 
HI HI AE C7 88 55 00 D4 BE DB 09 5U 4F 5D 59 62 98 96 B0 7E A4 A1 A2 A3 A4 
HI HI AE C7 88 55 00 D4 BE DB 09 5F 48 57 5F 62 97 6B B0 84 A4 A1 A2 A3 A4 
HI HI AE C7 88 55 00 D4 BE DB 09 5F 46 54 60 62 98 95 B0 84 A3 A0 A2 A3 A4 
HI HI AE C7 88 55 00 D4 BE DB 09 5F 48 53 60 62 98 96 B0 83 A4 A1 A2 A3 A3 
HI HI AE C7 88 55 00 D4 BE DB 09 5F 50 54 5E 62 98 96 B0 76 A4 A0 A2 A3 A4 
HI HI AE C7 88 55 00 D4 BE DB 09 5F 5A 55 5B 62 98 96 B0 8B A3 A0 A2 A3 A4 
HI HI AE C7 88 55 00 D4 BE DB 09 5F 66 56 60 62 98 97 
¡¡------------------------¡¡£Æ£Ï-£²£¹¤Îµ°Æ»Í×ÁÇ¡¡------------------------------        
 
¡¡¡¡¢£ µ°Æ»Í×ÁÇ£±¡§¡Öjamsat¡Ýkeps¡§£±£°£°£¹¡×¤è¤ê         
¡¡¡¡¡¡¡¡¡¡¡¡¡¡¡¡¡¡¡¡SB KEPS @ AMSAT  $ORB01158.N
¡¡¡¡¡¡¡¡¡¡¡¡¡¡¡¡¡¡¡¡2Line Orbital Elements 01158.AMSAT
HR AMSAT ORBITAL ELEMENTS FOR AMATEUR SATELLITES IN NASA FORMAT
FROM WA5QGD FORT WORTH,TX June 7, 2001
SEND SUBSCRIBE/UNSUBSCRIBE TO majordomo@amsat.org ONLY
BID: ORB01158.N
¡¡DECODE 2-LINE ELSETS WITH THE FOLLOWING KEY:
¡¡1 AAAAAU 00  0  0 BBBBB.BBBBBBBB  .CCCCCCCC  00000-0  00000-0 0  DDDZ
¡¡2 AAAAA EEE.EEEE FFF.FFFF GGGGGGG HHH.HHHH III.IIII JJ.JJJJJJJJKKKKKZ
¡¡KEY: A-CATALOGNUM B-EPOCHTIME C-DECAY D-ELSETNUM E-INCLINATION F-RAAN
¡¡G-ECCENTRICITY H-ARGPERIGEE I-MNANOM J-MNMOTION K-ORBITNUM Z-CHECKSUM
FO-29
1 24278U 96046B   01157.62369058 -.00000024  00000-0  10548-4 0 04344
2 24278 098.5457 024.2792 0351523 029.3567 332.6807 13.52772926237218
 ¢£ µ°Æ»Í×ÁÇ£²¡§¡Öjamsat¡Ýkeps¡§£±£°£±£°£¸¡×¤è¤ê
¡¡¡¡¡¡¡¡¡¡¡¡¡¡¡¡SB KEPS @ AMSAT  $ORB01158.O
¡¡¡¡¡¡¡¡¡¡¡¡¡¡¡¡Orbital Elements  01158.OSCAR
HR AMSAT ORBITAL ELEMENTS FOR OSCAR SATELLITES
FROM WA5QGD FORT WORTH,TX June 7, 2001
SEND SUBSCRIBE/UNSUBSCRIBE TO majordomo@amsat.org ONLY
BID: ORB01158.O
TO ALL RADIO AMATEURS BT
¡¡
Satellite: FO-29
Catalog number: 24278
Epoch time:      01157.62369058
Element set:    0434
Inclination:      098.5457 deg
RA of node:       024.2792 deg
Eccentricity:    0.0351523
Arg of perigee:   029.3567 deg
Mean anomaly:     332.6807 deg
Mean motion:   13.52772926 rev/day
Decay rate:       -2.4e-07 rev/day^2
Epoch rev:           23721
Checksum:              319
-------------------¡¡¡¡FO-29¡ÊJAS-2)¤Î¥Æ¥ì¥á¥È¥ê¤Ë´Ø¤¹¤ë¾ðÊó¡¡¡¡----------------------¡¡
¡¡
£²¡Ë¾åµ£¶·î£¹Æü¡ÊÅڡˤΥƥì¥á¥È¥ê£±£°¹ÔÌܤȺǽª¹Ô¤òʬÀϤ·¤Æ¤ª¤¤Þ¤¹.
AS23850C1      16JUN2001
9:26-9:40(JST) 
FREQ.435.803-.787MHz
¡ö¡ö£±£°¹ÔÌÜ
HI HI AE C7 88 55 00 D4 F0 1D 09 44 55 5D 82 62 97 95 B0 9F A8 A7 A7 A6 A5 
¡ö¡öºÇ½ª¹Ô
HI HI AE C7 88 55 00 D4 F0 1D 09 44 65 C5 69 62 97 95 B0 44 A7 A6 A6 A5 A5
¡ö¡ö£±£°¹ÔÌÜ
¥Æ¥ì¥á¥È¥ê¡¡  Æâ¡¡ÍÆ¡¡ ¡¡¡¡¡¡  ´¹»»»»ÃÍ¡¡Ã± °Ì  
£³£Ã	¼§µ¤¥»¥ó¥µ¡¼£Ú¼´=	41666.7	[nT]
£³£Ä	¼§µ¤¥»¥ó¥µ£Ø¼´	=	45588.2	[nT]
£´£Á	ÂÀÍÛÅÅÃÓȯÀ¸ÅÅή=	 1274.5	[mA]
£´£Â	£Â½¼ÊüÅÅÅÅή	=	  -79.2	[mA]
£´£Ã	£Âü»ÒÅ۵	=	   16.2	[V]
£´£Ä	£ÂÃæ´Öü»ÒÅ۵	=	    7.2	[V]
£µ£Á	¥Ð¥¹Å۵	=	   17.3	[V]
£µ£Â	£Ê£Ô£ÁÁ÷¿®ÅÅÎÏ	=	  935.4	[mW]
£µ£Ã 	¹½Âβ¹ÅÙ£±	=	   16.6	[¡î]
£µ£Ä	¹½Âβ¹ÅÙ£²	=	   17.0	[¡î]
£¶£Á	¹½Âβ¹ÅÙ£³	=	   17.0	[¡î]
£¶£Â	¹½Âβ¹ÅÙ£´	=	   17.4	[¡î]
£¶£Ã	£Â¥»¥ë²¹ÅÙ	=	   17.8	[¡î]
¡ö¡öºÇ½ª¹Ô
¥Æ¥ì¥á¥È¥ê¡¡  Æâ¡¡ÍÆ¡¡ ¡¡¡¡¡¡  ´¹»»»»ÃÍ¡¡Ã± °Ì  
£³£Ã	¼§µ¤¥»¥ó¥µ¡¼£Ú¼´=	49509.8	[nT]
£³£Ä	¼§µ¤¥»¥ó¥µ£Ø¼´	=	96568.6	[nT]
£´£Á	ÂÀÍÛÅÅÃÓȯÀ¸ÅÅή=	 1029.4	[mA]
£´£Â	£Â½¼ÊüÅÅÅÅή	=	  -79.2	[mA]
£´£Ã	£Âü»ÒÅ۵	=	   16.2	[V]
£´£Ä	£ÂÃæ´Öü»ÒÅ۵	=	    7.2	[V]
£µ£Á	¥Ð¥¹Å۵	=	   17.3	[V]
£µ£Â	£Ê£Ô£ÁÁ÷¿®ÅÅÎÏ	=	  343.9	[mW]
£µ£Ã 	¹½Âβ¹ÅÙ£±	=	   17.0	[¡î]
£µ£Ä	¹½Âβ¹ÅÙ£²	=	   17.4	[¡î]
£¶£Á	¹½Âβ¹ÅÙ£³	=	   17.4	[¡î]
£¶£Â	¹½Âβ¹ÅÙ£´	=	   17.8	[¡î]
£¶£Ã	£Â¥»¥ë²¹ÅÙ	=	   17.8	[¡î]
¡¡¡¡¡¡	
 ==========================¡¡FO-29¡Ê¤Õ¤¸£³¹æ¡Ë¤ÎQSO¾ðÊóÅù¡¡======================
   
¡¡£³)[jamsat-bb:
 ===============================================================================
¡¡¡¡¡¡£´¡Ë£Ê£Á£Ò£Ì ¤Î¥Û¡¼¥à¥Ú¡¼¥¸¤Ë±¿ÍÑͽÄ꤬µºÜ¤µ¤ì¤Æ¤¤¤Þ¤·¤¿¤Î¤Ç¤´¾Ò²ð¤·¤Þ¤¹¡¥
       ¡Ê http://www.jarl.or.jp/Japanese/3_Fuji/new/uy.htm ¡Ë
        ¢£ ¤Õ¤¸£³¹æ¡¿FO¡¼29/JAS-2 ¢£  
  ¡¡
¡¡¡¡¡¡¡¡¡¡¡ö¡ö¡ö¡¡±¿ÍÑͽÄê¤Ë¤Ä¤¤¤Æ¡¡¡ö¡ö¡ö
¡¡¡¡¡¡¡¡¡¡£´·î£²Æü¡¡¡Á¡¡£··î£²Æü ¥¢¥Ê¥í¥°·Ï±¿ÍÑ
¡¡¡¡¡ö¤Ê¤ª¡¤±¿ÍÑͽÄê¤ÏÅÔ¹ç¤Ë¤è¤êÊѹ¹¤¹¤ë¤³¤È¤¬¤¢¤ê¤Þ¤¹¤Î¤Çͽ¤á¤´Î»¾µ´ê¤¤¤Þ¤¹¡£
¡¡¾È²ñÀè¡¡¡§¡¡lab@jarl.or.jp
¡¡ºÇ¿·¤Î¾ðÊó¤Ï¥Æ¥ì¥Û¥ó¥µ¡¼¥Ó¥¹¡Ê£°£³¡Ý£³£¹£´£²¡Ý£±£°£°£°¡Ë¤ò¤ªÊ¹¤¤¯¤À¤µ¤¤¡£¡¡¡¡
¡¡°Ê¸å¤Î±¿ÍѤˤĤ¤Þ¤·¤Æ¤ÏÊ¿À®£±£³Ç¯£··î¾å½Ü¤Ë¤ªÃΤ餻Ãפ·¤Þ¤¹¡£¡¡¡¡¡¡¡¡
¡¡¡¡¡¡¡¡
-----------------------    £Æ£Ï¡Ý£²£°¡ÊJAS-£±£â¡ËÆ»Í×ÁÇ   -------------------------
 ¡¡£µ¡Ë
 ¡¡¢£ µ°Æ»Í×ÁÇ£± ¡§½Ðŵ¤Ï£Æ£Ï-£²£¹¡Ö¤Õ¤¸£³¹æ¡×¤ËƱ¤¸¡¥
  
FO-20
1 20480U 90013C   01157.72338904 -.00000062  00000-0 -61105-4 0 03246
2 20480 099.0608 228.0977 0540624 332.9607 024.4246 12.83292347530757
 
 ¡¡¢£ µ°Æ»Í×ÁÇ£² ¡§½Ðŵ¤Ï£Æ£Ï¡Ý£²£¹¡Ö¤Õ¤¸£³¹æ¡×¤ËƱ¤¸¡¥
               
Satellite: FO-20
Catalog number: 20480
Epoch time:      01157.72338904
Element set:    0324
Inclination:      099.0608 deg
RA of node:       228.0977 deg
Eccentricity:    0.0540624
Arg of perigee:   332.9607 deg
Mean anomaly:     024.4246 deg
Mean motion:   12.83292347 rev/day
Decay rate:       -6.2e-07 rev/day^2
Epoch rev:           53075
Checksum:              296¡¡
¡¡--------------------------------------------------------------------------------
¡¡
¡¡        ¢£ ¤Õ¤¸£²¹æ¡¿£Æ£Ï¡Ý£²£°/JAS-1£â ¢£  ¡¡   
            
¡¡¡¡¡¡¡¡¡¡¡¡¡¡¡¡¡¡¡¡¡Ö¤Õ¤¸£²¹æ¡×¡¡¸½¶·                                                                                  
             
